Vancouver Sea Island Ccg, British Columbia

6:53 AM PST on February 06, 2016 (GMT -0800)
Vancouver International

Weather History for CYVR - March, 2014

Change the Weather History Date:

Sunday, March 9, 2014

  Actual Average Record
Temperature  
Mean Temperature 48 °F -  
Max Temperature 54 °F 46 °F 57 °F (2005)
Min Temperature 42 °F 36 °F 28 °F (2009)
Degree Days  
Heating Degree Days 17    
Moisture  
Dew Point 44 °F    
Average Humidity 83    
Maximum Humidity 100    
Minimum Humidity 54    
Precipitation  
Precipitation 0.08 in - - ()
Sea Level Pressure  
Sea Level Pressure 29.93 in    
Wind  
Wind Speed 5 mph ()    
Max Wind Speed 8 mph    
Max Gust Speed -    
Visibility 15.1 miles    
Events Rain    
Averages and records for this station are not official NWS values.
T = Trace of Precipitation, MM = Missing Value Source: Averaged Metar Reports

Daily Weather History Graph

Daily Weather History Graph

Search for Another Location

Airport or City:

Trip Planner

Search our weather history database for the weather conditions in past years. The results will help you decide how hot, cold, wet, or windy it might be!

Date:

Astronomy

Mar. 09, 2014 Rise Set
Actual Time 7:38 AM PDT 7:08 PM PDT
Civil Twilight 7:06 AM PDT 7:40 PM PDT
Nautical Twilight 6:29 AM PDT 8:17 PM PDT
Astronomical Twilight 5:52 AM PDT 8:54 PM PDT
Moon 12:43 PM PDT (3/9) 3:31 AM PDT (3/9)
Length of Visible Light 12h 33m
Length of Day
11h 30m
First Quarter, 62% of the Moon is Illuminated
Mar 9
First Quarter
Mar 16
Full
Mar 23
Last Quarter
Mar 30
New
Apr 7
First Quarter

Hourly Weather History & Observations

Time (PDT) Temp. Windchill Dew Point Humidity Pressure Visibility Wind Dir Wind Speed Gust Speed Precip Events Conditions
12:00 AM 46.4 °F 42.4 °F 46.4 °F 100% 29.75 in 5.0 mi East 8.1 mph - N/A Rain Light Rain
1:00 AM 46.4 °F 43.5 °F 46.4 °F 100% 29.78 in 8.0 mi East 5.8 mph - N/A   Overcast
3:00 AM 46.4 °F 43.5 °F 46.4 °F 100% 29.81 in 8.0 mi ENE 5.8 mph - N/A   Overcast
4:00 AM 46.4 °F 42.4 °F 46.4 °F 100% 29.83 in 8.0 mi East 8.1 mph - N/A   Overcast
5:00 AM 46 °F - 45 °F 95% 29.85 in 12 mi East 6.9 mph - -   Partly Cloudy
5:00 AM 46.4 °F 42.9 °F 44.6 °F 93% 29.85 in 12.0 mi East 6.9 mph - N/A   Overcast
6:00 AM 46.4 °F 42.9 °F 44.6 °F 93% 29.86 in 15.0 mi East 6.9 mph - N/A   Overcast
7:00 AM 44.6 °F 40.7 °F 42.8 °F 93% 29.88 in 15.0 mi East 6.9 mph - N/A   Mostly Cloudy
8:00 AM 46.4 °F 43.5 °F 44.6 °F 93% 29.90 in 20.0 mi NE 5.8 mph - N/A   Mostly Cloudy
9:00 AM 46.4 °F 42.4 °F 44.6 °F 93% 29.93 in 15.0 mi East 8.1 mph - N/A   Mostly Cloudy
10:00 AM 48.2 °F - 46.4 °F 93% 29.95 in 25.0 mi East 6.9 mph - N/A   Mostly Cloudy
11:00 AM 50 °F - 45 °F 77% 29.98 in 25 mi East 3.5 mph - -   Mostly Cloudy
11:00 AM 50.0 °F - 44.6 °F 82% 29.98 in 25.0 mi East 3.5 mph - N/A   Mostly Cloudy
12:00 PM 51.8 °F - 44.6 °F 76% 30.01 in 25.0 mi South 3.5 mph - N/A   Mostly Cloudy
1:00 PM 51.8 °F - 44.6 °F 76% 30.01 in 30.0 mi SSW 4.6 mph - N/A   Mostly Cloudy
2:00 PM 53.6 °F - 44.6 °F 72% 30.01 in 30.0 mi SW 5.8 mph - N/A   Mostly Cloudy
3:00 PM 53.6 °F - 42.8 °F 67% 30.00 in 30.0 mi SW 5.8 mph - N/A   Mostly Cloudy
4:00 PM 55.4 °F - 39.2 °F 54% 29.99 in 30.0 mi SW 3.5 mph - N/A   Mostly Cloudy
5:00 PM 54 °F - 43 °F 57% 29.99 in 28 mi SSW 5.8 mph - -   Mostly Cloudy
5:00 PM 53.6 °F - 42.8 °F 67% 29.99 in 30.0 mi SSW 5.8 mph - N/A   Mostly Cloudy
6:00 PM 53.6 °F - 44.6 °F 72% 29.98 in 30.0 mi SE 6.9 mph - N/A   Mostly Cloudy
7:00 PM 50.0 °F - 44.6 °F 82% 29.97 in 20.0 mi SE 6.9 mph - N/A   Mostly Cloudy
8:00 PM 50.0 °F - 44.6 °F 82% 29.97 in 20.0 mi ESE 3.5 mph - N/A   Mostly Cloudy
9:00 PM 50.0 °F - 44.6 °F 82% 29.97 in 20.0 mi ENE 3.5 mph - N/A   Mostly Cloudy
10:00 PM 48.2 °F - 42.8 °F 82% 29.97 in 20.0 mi ENE 4.6 mph - N/A   Mostly Cloudy
11:00 PM 47 °F - 41 °F 73% 29.96 in 19 mi ENE 6.9 mph - -   Mostly Cloudy
11:00 PM 48.2 °F - 41.0 °F 76% 29.96 in 20.0 mi ENE 8.1 mph - N/A   Mostly Cloudy
12:00 AM 44.6 °F 43.1 °F 39.2 °F 81% 29.96 in 20.0 mi ENE 3.5 mph - N/A   Mostly Cloudy